Information on these data can be found in provided Readme document
Contact Info: Zachary Fasnacht (zachary.fasnacht@ssaihq.com); Nickolay Krotkov (nickolay.a.krotkov@nasa.gov); Lok Lamsal (lok.lamsal@nasa.gov)

FillValue: -999.
ScaleFactor: 1e15
Units: molecules/cm^2

Date(yyyy-mm-dd),City,Country,LonCenter,LatCenter,BoundingCoordinates,Median,Q1,Q3,Mean,Baseline_Median,Baseline_Q1,Baseline_Q3,Baseline_Mean,NumGoodSamples,NumTotalSamples
2015-01-01,Khartoum,Sudan,32.5333,15.6333,[32.0333 15.1333 33.0333 16.1333],0.832,0.422,1.089,0.785,0.814,0.434,1.163,0.81,255.0,525.0
2015-01-02,Khartoum,Sudan,32.5333,15.6333,[32.0333 15.1333 33.0333 16.1333],0.78,0.422,1.093,0.774,0.797,0.42,1.159,0.803,227.0,541.0
2015-01-03,Khartoum,Sudan,32.5333,15.6333,[32.0333 15.1333 33.0333 16.1333],0.747,0.368,1.046,0.732,0.774,0.411,1.144,0.79,256.0,522.0
2015-01-04,Khartoum,Sudan,32.5333,15.6333,[32.0333 15.1333 33.0333 16.1333],0.725,0.338,1.038,0.696,0.781,0.426,1.148,0.797,239.0,549.0
2015-01-05,Khartoum,Sudan,32.5333,15.6333,[32.0333 15.1333 33.0333 16.1333],0.669,0.332,0.951,0.653,0.753,0.41,1.118,0.773,226.0,533.0
2015-01-06,Khartoum,Sudan,32.5333,15.6333,[32.0333 15.1333 33.0333 16.1333],0.669,0.332,0.957,0.671,0.746,0.401,1.128,0.779,257.0,546.0
2015-01-07,Khartoum,Sudan,32.5333,15.6333,[32.0333 15.1333 33.0333 16.1333],0.658,0.287,0.925,0.635,0.763,0.411,1.142,0.783,234.0,546.0
2015-01-08,Khartoum,Sudan,32.5333,15.6333,[32.0333 15.1333 33.0333 16.1333],0.658,0.287,0.945,0.636,0.78,0.43,1.145,0.794,255.0,535.0
2015-01-09,Khartoum,Sudan,32.5333,15.6333,[32.0333 15.1333 33.0333 16.1333],0.658,0.285,0.944,0.64,0.791,0.436,1.189,0.822,236.0,554.0
2015-01-10,Khartoum,Sudan,32.5333,15.6333,[32.0333 15.1333 33.0333 16.1333],0.658,0.285,0.944,0.64,0.809,0.447,1.192,0.829,236.0,502.0
2015-01-11,Khartoum,Sudan,32.5333,15.6333,[32.0333 15.1333 33.0333 16.1333],0.574,0.164,0.951,0.611,0.809,0.454,1.21,0.844,205.0,522.0
2015-01-12,Khartoum,Sudan,32.5333,15.6333,[32.0333 15.1333 33.0333 16.1333],0.658,0.278,0.957,0.65,0.821,0.474,1.192,0.845,209.0,507.0
2015-01-13,Khartoum,Sudan,32.5333,15.6333,[32.0333 15.1333 33.0333 16.1333],0.646,0.262,0.951,0.638,0.866,0.493,1.209,0.872,210.0,524.0
2015-01-14,Khartoum,Sudan,32.5333,15.6333,[32.0333 15.1333 33.0333 16.1333],0.66,0.282,1.001,0.678,0.87,0.486,1.247,0.877,208.0,516.0
2015-01-15,Khartoum,Sudan,32.5333,15.6333,[32.0333 15.1333 33.0333 16.1333],0.669,0.287,1.084,0.705,0.851,0.464,1.24,0.856,234.0,521.0
2015-01-16,Khartoum,Sudan,32.5333,15.6333,[32.0333 15.1333 33.0333 16.1333],0.669,0.278,1.044,0.69,0.876,0.486,1.238,0.867,209.0,523.0
2015-01-17,Khartoum,Sudan,32.5333,15.6333,[32.0333 15.1333 33.0333 16.1333],0.742,0.337,1.134,0.752,0.887,0.484,1.268,0.877,233.0,504.0
2015-01-18,Khartoum,Sudan,32.5333,15.6333,[32.0333 15.1333 33.0333 16.1333],0.762,0.361,1.195,0.805,0.882,0.494,1.279,0.893,204.0,518.0
2015-01-19,Khartoum,Sudan,32.5333,15.6333,[32.0333 15.1333 33.0333 16.1333],0.762,0.405,1.192,0.81,0.874,0.503,1.272,0.889,234.0,499.0
2015-01-20,Khartoum,Sudan,32.5333,15.6333,[32.0333 15.1333 33.0333 16.1333],0.875,0.444,1.208,0.883,0.895,0.53,1.277,0.918,217.0,525.0
2015-01-21,Khartoum,Sudan,32.5333,15.6333,[32.0333 15.1333 33.0333 16.1333],0.904,0.517,1.225,0.891,0.908,0.535,1.295,0.92,203.0,508.0
2015-01-22,Khartoum,Sudan,32.5333,15.6333,[32.0333 15.1333 33.0333 16.1333],0.897,0.45,1.234,0.89,0.924,0.507,1.303,0.93,234.0,523.0
2015-01-23,Khartoum,Sudan,32.5333,15.6333,[32.0333 15.1333 33.0333 16.1333],0.907,0.531,1.239,0.914,0.898,0.486,1.291,0.903,213.0,522.0
2015-01-24,Khartoum,Sudan,32.5333,15.6333,[32.0333 15.1333 33.0333 16.1333],0.916,0.569,1.336,0.952,0.89,0.476,1.308,0.899,233.0,512.0
2015-01-25,Khartoum,Sudan,32.5333,15.6333,[32.0333 15.1333 33.0333 16.1333],0.916,0.569,1.336,0.952,0.879,0.477,1.312,0.9,233.0,552.0
2015-01-26,Khartoum,Sudan,32.5333,15.6333,[32.0333 15.1333 33.0333 16.1333],0.89,0.559,1.285,0.93,0.875,0.475,1.298,0.888,252.0,522.0
2015-01-27,Khartoum,Sudan,32.5333,15.6333,[32.0333 15.1333 33.0333 16.1333],0.918,0.613,1.407,0.988,0.872,0.457,1.31,0.892,220.0,542.0
2015-01-28,Khartoum,Sudan,32.5333,15.6333,[32.0333 15.1333 33.0333 16.1333],0.979,0.715,1.401,1.031,0.871,0.474,1.309,0.893,225.0,528.0
2015-01-29,Khartoum,Sudan,32.5333,15.6333,[32.0333 15.1333 33.0333 16.1333],1.022,0.73,1.407,1.046,0.892,0.485,1.316,0.894,228.0,549.0
2015-01-30,Khartoum,Sudan,32.5333,15.6333,[32.0333 15.1333 33.0333 16.1333],1.003,0.733,1.407,1.049,0.925,0.509,1.353,0.92,227.0,544.0
2015-01-31,Khartoum,Sudan,32.5333,15.6333,[32.0333 15.1333 33.0333 16.1333],0.947,0.707,1.397,1.018,0.897,0.51,1.333,0.907,254.0,546.0
2015-02-01,Khartoum,Sudan,32.5333,15.6333,[32.0333 15.1333 33.0333 16.1333],0.916,0.689,1.355,0.988,0.901,0.52,1.31,0.904,230.0,548.0
2015-02-02,Khartoum,Sudan,32.5333,15.6333,[32.0333 15.1333 33.0333 16.1333],0.918,0.695,1.359,0.995,0.914,0.527,1.319,0.922,253.0,529.0
2015-02-03,Khartoum,Sudan,32.5333,15.6333,[32.0333 15.1333 33.0333 16.1333],0.947,0.707,1.407,1.024,0.909,0.517,1.322,0.925,223.0,544.0
2015-02-04,Khartoum,Sudan,32.5333,15.6333,[32.0333 15.1333 33.0333 16.1333],0.897,0.674,1.355,0.981,0.885,0.513,1.328,0.925,252.0,525.0
2015-02-05,Khartoum,Sudan,32.5333,15.6333,[32.0333 15.1333 33.0333 16.1333],0.89,0.67,1.398,0.981,0.901,0.517,1.344,0.927,234.0,551.0
2015-02-06,Khartoum,Sudan,32.5333,15.6333,[32.0333 15.1333 33.0333 16.1333],0.89,0.67,1.3,0.964,0.907,0.51,1.326,0.935,221.0,534.0
2015-02-07,Khartoum,Sudan,32.5333,15.6333,[32.0333 15.1333 33.0333 16.1333],0.89,0.658,1.3,0.952,0.955,0.542,1.344,0.963,252.0,547.0
2015-02-08,Khartoum,Sudan,32.5333,15.6333,[32.0333 15.1333 33.0333 16.1333],0.869,0.651,1.271,0.918,0.953,0.562,1.327,0.955,232.0,545.0
2015-02-09,Khartoum,Sudan,32.5333,15.6333,[32.0333 15.1333 33.0333 16.1333],0.84,0.612,1.271,0.897,0.931,0.53,1.317,0.934,253.0,534.0
2015-02-10,Khartoum,Sudan,32.5333,15.6333,[32.0333 15.1333 33.0333 16.1333],0.89,0.632,1.274,0.915,0.945,0.518,1.321,0.934,234.0,552.0
2015-02-11,Khartoum,Sudan,32.5333,15.6333,[32.0333 15.1333 33.0333 16.1333],0.89,0.632,1.274,0.915,0.943,0.537,1.314,0.934,234.0,500.0
2015-02-12,Khartoum,Sudan,32.5333,15.6333,[32.0333 15.1333 33.0333 16.1333],0.836,0.526,1.196,0.841,0.92,0.499,1.303,0.916,202.0,521.0
2015-02-13,Khartoum,Sudan,32.5333,15.6333,[32.0333 15.1333 33.0333 16.1333],0.727,0.368,1.021,0.728,0.895,0.467,1.248,0.892,205.0,505.0
2015-02-14,Khartoum,Sudan,32.5333,15.6333,[32.0333 15.1333 33.0333 16.1333],0.69,0.299,0.953,0.671,0.88,0.464,1.24,0.884,208.0,523.0
2015-02-15,Khartoum,Sudan,32.5333,15.6333,[32.0333 15.1333 33.0333 16.1333],0.677,0.307,0.953,0.663,0.87,0.465,1.255,0.886,209.0,519.0
2015-02-16,Khartoum,Sudan,32.5333,15.6333,[32.0333 15.1333 33.0333 16.1333],0.677,0.299,0.954,0.661,0.831,0.435,1.208,0.863,235.0,524.0
2015-02-17,Khartoum,Sudan,32.5333,15.6333,[32.0333 15.1333 33.0333 16.1333],0.657,0.281,0.941,0.62,0.824,0.411,1.197,0.84,215.0,527.0
2015-02-18,Khartoum,Sudan,32.5333,15.6333,[32.0333 15.1333 33.0333 16.1333],0.67,0.299,0.982,0.679,0.826,0.439,1.2,0.85,238.0,509.0
2015-02-19,Khartoum,Sudan,32.5333,15.6333,[32.0333 15.1333 33.0333 16.1333],0.657,0.281,0.996,0.665,0.807,0.425,1.176,0.839,209.0,523.0
2015-02-20,Khartoum,Sudan,32.5333,15.6333,[32.0333 15.1333 33.0333 16.1333],0.69,0.307,1.038,0.697,0.806,0.43,1.189,0.843,237.0,506.0
2015-02-21,Khartoum,Sudan,32.5333,15.6333,[32.0333 15.1333 33.0333 16.1333],0.684,0.282,1.038,0.69,0.8,0.425,1.171,0.835,220.0,532.0
2015-02-22,Khartoum,Sudan,32.5333,15.6333,[32.0333 15.1333 33.0333 16.1333],0.753,0.322,1.012,0.708,0.792,0.413,1.15,0.816,206.0,517.0
2015-02-23,Khartoum,Sudan,32.5333,15.6333,[32.0333 15.1333 33.0333 16.1333],0.743,0.322,1.031,0.711,0.803,0.414,1.214,0.824,237.0,530.0
2015-02-24,Khartoum,Sudan,32.5333,15.6333,[32.0333 15.1333 33.0333 16.1333],0.743,0.322,1.021,0.711,0.824,0.434,1.215,0.837,226.0,531.0
2015-02-25,Khartoum,Sudan,32.5333,15.6333,[32.0333 15.1333 33.0333 16.1333],0.753,0.322,1.038,0.717,0.819,0.452,1.224,0.852,247.0,519.0
2015-02-26,Khartoum,Sudan,32.5333,15.6333,[32.0333 15.1333 33.0333 16.1333],0.753,0.322,1.063,0.745,0.822,0.446,1.256,0.867,265.0,559.0
2015-02-27,Khartoum,Sudan,32.5333,15.6333,[32.0333 15.1333 33.0333 16.1333],0.786,0.32,1.079,0.755,0.853,0.458,1.279,0.882,284.0,528.0
2015-02-28,Khartoum,Sudan,32.5333,15.6333,[32.0333 15.1333 33.0333 16.1333],0.819,0.373,1.152,0.821,0.871,0.457,1.316,0.906,253.0,549.0
2015-03-01,Khartoum,Sudan,32.5333,15.6333,[32.0333 15.1333 33.0333 16.1333],0.812,0.416,1.114,0.824,0.896,0.472,1.312,0.917,256.0,533.0
2015-03-02,Khartoum,Sudan,32.5333,15.6333,[32.0333 15.1333 33.0333 16.1333],0.819,0.427,1.123,0.854,0.899,0.471,1.317,0.925,263.0,550.0
2015-03-03,Khartoum,Sudan,32.5333,15.6333,[32.0333 15.1333 33.0333 16.1333],0.889,0.498,1.277,0.904,0.949,0.505,1.36,0.952,262.0,543.0
2015-03-04,Khartoum,Sudan,32.5333,15.6333,[32.0333 15.1333 33.0333 16.1333],0.881,0.483,1.281,0.909,0.945,0.5,1.367,0.951,285.0,545.0
2015-03-05,Khartoum,Sudan,32.5333,15.6333,[32.0333 15.1333 33.0333 16.1333],0.838,0.427,1.189,0.879,0.955,0.475,1.363,0.951,288.0,548.0
2015-03-06,Khartoum,Sudan,32.5333,15.6333,[32.0333 15.1333 33.0333 16.1333],0.881,0.48,1.277,0.919,0.965,0.485,1.391,0.964,312.0,531.0
2015-03-07,Khartoum,Sudan,32.5333,15.6333,[32.0333 15.1333 33.0333 16.1333],0.869,0.445,1.343,0.93,0.96,0.474,1.399,0.965,284.0,545.0
2015-03-08,Khartoum,Sudan,32.5333,15.6333,[32.0333 15.1333 33.0333 16.1333],0.819,0.427,1.197,0.88,0.96,0.462,1.376,0.957,312.0,527.0
2015-03-09,Khartoum,Sudan,32.5333,15.6333,[32.0333 15.1333 33.0333 16.1333],0.807,0.412,1.281,0.879,0.972,0.489,1.387,0.966,296.0,551.0
2015-03-10,Khartoum,Sudan,32.5333,15.6333,[32.0333 15.1333 33.0333 16.1333],0.838,0.419,1.277,0.891,0.944,0.471,1.38,0.958,282.0,534.0
2015-03-11,Khartoum,Sudan,32.5333,15.6333,[32.0333 15.1333 33.0333 16.1333],0.852,0.427,1.299,0.901,0.973,0.491,1.388,0.977,303.0,546.0
2015-03-12,Khartoum,Sudan,32.5333,15.6333,[32.0333 15.1333 33.0333 16.1333],0.85,0.427,1.277,0.889,0.974,0.511,1.393,0.979,293.0,546.0
2015-03-13,Khartoum,Sudan,32.5333,15.6333,[32.0333 15.1333 33.0333 16.1333],0.811,0.418,1.19,0.869,0.927,0.504,1.357,0.962,275.0,534.0
2015-03-14,Khartoum,Sudan,32.5333,15.6333,[32.0333 15.1333 33.0333 16.1333],0.817,0.427,1.245,0.886,0.938,0.526,1.375,0.975,274.0,549.0
2015-03-15,Khartoum,Sudan,32.5333,15.6333,[32.0333 15.1333 33.0333 16.1333],0.817,0.427,1.245,0.886,0.944,0.532,1.376,0.973,274.0,496.0
2015-03-16,Khartoum,Sudan,32.5333,15.6333,[32.0333 15.1333 33.0333 16.1333],0.862,0.447,1.343,0.929,0.951,0.514,1.355,0.973,243.0,516.0
2015-03-17,Khartoum,Sudan,32.5333,15.6333,[32.0333 15.1333 33.0333 16.1333],0.811,0.45,1.19,0.86,0.926,0.511,1.335,0.958,240.0,501.0
2015-03-18,Khartoum,Sudan,32.5333,15.6333,[32.0333 15.1333 33.0333 16.1333],0.723,0.426,1.16,0.843,0.928,0.516,1.359,0.979,251.0,520.0
2015-03-19,Khartoum,Sudan,32.5333,15.6333,[32.0333 15.1333 33.0333 16.1333],0.811,0.453,1.162,0.862,0.938,0.506,1.35,0.974,250.0,517.0
2015-03-20,Khartoum,Sudan,32.5333,15.6333,[32.0333 15.1333 33.0333 16.1333],0.833,0.474,1.183,0.875,0.942,0.519,1.371,0.981,253.0,519.0
2015-03-21,Khartoum,Sudan,32.5333,15.6333,[32.0333 15.1333 33.0333 16.1333],0.802,0.453,1.16,0.849,0.953,0.532,1.383,0.999,256.0,520.0
2015-03-22,Khartoum,Sudan,32.5333,15.6333,[32.0333 15.1333 33.0333 16.1333],0.83,0.474,1.168,0.866,0.971,0.545,1.374,0.999,281.0,503.0
2015-03-23,Khartoum,Sudan,32.5333,15.6333,[32.0333 15.1333 33.0333 16.1333],0.911,0.522,1.245,0.924,0.999,0.544,1.397,1.02,252.0,518.0
2015-03-24,Khartoum,Sudan,32.5333,15.6333,[32.0333 15.1333 33.0333 16.1333],0.83,0.406,1.231,0.866,0.999,0.541,1.409,1.017,281.0,500.0
2015-03-25,Khartoum,Sudan,32.5333,15.6333,[32.0333 15.1333 33.0333 16.1333],0.766,0.406,1.245,0.859,0.986,0.552,1.42,1.024,267.0,526.0
2015-03-26,Khartoum,Sudan,32.5333,15.6333,[32.0333 15.1333 33.0333 16.1333],0.686,0.392,1.168,0.832,0.964,0.547,1.403,1.017,254.0,508.0
2015-03-27,Khartoum,Sudan,32.5333,15.6333,[32.0333 15.1333 33.0333 16.1333],0.717,0.395,1.181,0.852,0.967,0.547,1.411,1.023,275.0,520.0
2015-03-28,Khartoum,Sudan,32.5333,15.6333,[32.0333 15.1333 33.0333 16.1333],0.717,0.392,1.181,0.848,1.037,0.583,1.513,1.072,289.0,521.0
2015-03-29,Khartoum,Sudan,32.5333,15.6333,[32.0333 15.1333 33.0333 16.1333],0.775,0.381,1.205,0.856,1.04,0.586,1.488,1.066,292.0,514.0
2015-03-30,Khartoum,Sudan,32.5333,15.6333,[32.0333 15.1333 33.0333 16.1333],0.802,0.395,1.248,0.872,1.05,0.58,1.512,1.077,310.0,554.0
2015-03-31,Khartoum,Sudan,32.5333,15.6333,[32.0333 15.1333 33.0333 16.1333],0.833,0.395,1.248,0.885,1.072,0.605,1.515,1.086,327.0,527.0
2015-04-01,Khartoum,Sudan,32.5333,15.6333,[32.0333 15.1333 33.0333 16.1333],0.989,0.395,1.302,0.94,1.141,0.632,1.565,1.133,295.0,548.0
2015-04-02,Khartoum,Sudan,32.5333,15.6333,[32.0333 15.1333 33.0333 16.1333],0.925,0.406,1.267,0.917,1.106,0.614,1.531,1.114,289.0,532.0
2015-04-03,Khartoum,Sudan,32.5333,15.6333,[32.0333 15.1333 33.0333 16.1333],0.83,0.395,1.267,0.884,1.12,0.664,1.537,1.137,302.0,550.0
2015-04-04,Khartoum,Sudan,32.5333,15.6333,[32.0333 15.1333 33.0333 16.1333],0.83,0.393,1.267,0.869,1.082,0.638,1.539,1.123,299.0,544.0
2015-04-05,Khartoum,Sudan,32.5333,15.6333,[32.0333 15.1333 33.0333 16.1333],0.826,0.393,1.266,0.849,1.059,0.608,1.515,1.092,299.0,550.0
2015-04-06,Khartoum,Sudan,32.5333,15.6333,[32.0333 15.1333 33.0333 16.1333],0.816,0.354,1.266,0.825,1.043,0.576,1.522,1.075,301.0,551.0
2015-04-07,Khartoum,Sudan,32.5333,15.6333,[32.0333 15.1333 33.0333 16.1333],0.845,0.36,1.276,0.848,1.036,0.559,1.499,1.057,325.0,535.0
2015-04-08,Khartoum,Sudan,32.5333,15.6333,[32.0333 15.1333 33.0333 16.1333],0.916,0.419,1.285,0.892,1.057,0.571,1.515,1.078,295.0,550.0
2015-04-09,Khartoum,Sudan,32.5333,15.6333,[32.0333 15.1333 33.0333 16.1333],0.887,0.395,1.266,0.871,1.064,0.56,1.525,1.074,322.0,532.0
2015-04-10,Khartoum,Sudan,32.5333,15.6333,[32.0333 15.1333 33.0333 16.1333],0.916,0.419,1.309,0.894,1.075,0.577,1.531,1.084,307.0,561.0
2015-04-11,Khartoum,Sudan,32.5333,15.6333,[32.0333 15.1333 33.0333 16.1333],0.937,0.423,1.276,0.903,1.067,0.563,1.515,1.08,293.0,546.0
2015-04-12,Khartoum,Sudan,32.5333,15.6333,[32.0333 15.1333 33.0333 16.1333],0.928,0.423,1.285,0.909,1.003,0.523,1.473,1.038,310.0,558.0
2015-04-13,Khartoum,Sudan,32.5333,15.6333,[32.0333 15.1333 33.0333 16.1333],0.893,0.423,1.266,0.883,0.98,0.516,1.459,1.03,301.0,557.0
2015-04-14,Khartoum,Sudan,32.5333,15.6333,[32.0333 15.1333 33.0333 16.1333],0.891,0.423,1.266,0.882,0.965,0.518,1.421,1.018,304.0,544.0
2015-04-15,Khartoum,Sudan,32.5333,15.6333,[32.0333 15.1333 33.0333 16.1333],0.857,0.419,1.266,0.886,0.962,0.516,1.451,1.027,304.0,559.0
2015-04-16,Khartoum,Sudan,32.5333,15.6333,[32.0333 15.1333 33.0333 16.1333],0.857,0.419,1.266,0.886,0.939,0.506,1.422,1.008,304.0,506.0
2015-04-17,Khartoum,Sudan,32.5333,15.6333,[32.0333 15.1333 33.0333 16.1333],0.869,0.41,1.284,0.886,0.951,0.514,1.439,1.02,274.0,527.0
2015-04-18,Khartoum,Sudan,32.5333,15.6333,[32.0333 15.1333 33.0333 16.1333],0.837,0.391,1.21,0.85,0.948,0.507,1.421,1.003,267.0,511.0
2015-04-19,Khartoum,Sudan,32.5333,15.6333,[32.0333 15.1333 33.0333 16.1333],0.842,0.392,1.226,0.879,0.965,0.514,1.456,1.009,277.0,529.0
2015-04-20,Khartoum,Sudan,32.5333,15.6333,[32.0333 15.1333 33.0333 16.1333],0.842,0.396,1.226,0.903,0.953,0.51,1.445,1.021,275.0,522.0
2015-04-21,Khartoum,Sudan,32.5333,15.6333,[32.0333 15.1333 33.0333 16.1333],0.857,0.427,1.229,0.934,0.98,0.538,1.452,1.043,274.0,524.0
2015-04-22,Khartoum,Sudan,32.5333,15.6333,[32.0333 15.1333 33.0333 16.1333],0.837,0.392,1.21,0.905,0.996,0.561,1.468,1.06,277.0,525.0
2015-04-23,Khartoum,Sudan,32.5333,15.6333,[32.0333 15.1333 33.0333 16.1333],0.869,0.427,1.232,0.937,1.009,0.59,1.467,1.077,299.0,506.0
2015-04-24,Khartoum,Sudan,32.5333,15.6333,[32.0333 15.1333 33.0333 16.1333],0.874,0.443,1.413,0.974,1.023,0.606,1.515,1.099,269.0,521.0
2015-04-25,Khartoum,Sudan,32.5333,15.6333,[32.0333 15.1333 33.0333 16.1333],0.945,0.494,1.32,0.998,1.051,0.622,1.526,1.122,293.0,501.0
2015-04-26,Khartoum,Sudan,32.5333,15.6333,[32.0333 15.1333 33.0333 16.1333],0.937,0.482,1.373,1.004,1.079,0.635,1.542,1.133,275.0,528.0
2015-04-27,Khartoum,Sudan,32.5333,15.6333,[32.0333 15.1333 33.0333 16.1333],0.945,0.494,1.407,1.023,1.107,0.654,1.544,1.148,262.0,512.0
2015-04-28,Khartoum,Sudan,32.5333,15.6333,[32.0333 15.1333 33.0333 16.1333],0.989,0.516,1.439,1.054,1.114,0.651,1.54,1.153,282.0,524.0
2015-04-29,Khartoum,Sudan,32.5333,15.6333,[32.0333 15.1333 33.0333 16.1333],0.945,0.482,1.43,1.035,1.146,0.665,1.578,1.173,274.0,524.0
2015-04-30,Khartoum,Sudan,32.5333,15.6333,[32.0333 15.1333 33.0333 16.1333],0.965,0.494,1.439,1.057,1.103,0.642,1.557,1.147,281.0,511.0
2015-05-01,Khartoum,Sudan,32.5333,15.6333,[32.0333 15.1333 33.0333 16.1333],0.966,0.494,1.445,1.062,1.098,0.631,1.546,1.144,288.0,552.0
2015-05-02,Khartoum,Sudan,32.5333,15.6333,[32.0333 15.1333 33.0333 16.1333],0.989,0.515,1.445,1.062,1.102,0.648,1.56,1.155,306.0,521.0
2015-05-03,Khartoum,Sudan,32.5333,15.6333,[32.0333 15.1333 33.0333 16.1333],1.064,0.683,1.539,1.157,1.102,0.677,1.586,1.174,275.0,542.0
2015-05-04,Khartoum,Sudan,32.5333,15.6333,[32.0333 15.1333 33.0333 16.1333],0.989,0.557,1.439,1.07,1.095,0.659,1.573,1.17,271.0,529.0
2015-05-05,Khartoum,Sudan,32.5333,15.6333,[32.0333 15.1333 33.0333 16.1333],0.993,0.536,1.439,1.071,1.104,0.664,1.59,1.178,283.0,547.0
2015-05-06,Khartoum,Sudan,32.5333,15.6333,[32.0333 15.1333 33.0333 16.1333],0.99,0.536,1.439,1.055,1.108,0.663,1.603,1.176,279.0,540.0
2015-05-07,Khartoum,Sudan,32.5333,15.6333,[32.0333 15.1333 33.0333 16.1333],0.989,0.575,1.439,1.063,1.1,0.685,1.589,1.175,277.0,540.0
2015-05-08,Khartoum,Sudan,32.5333,15.6333,[32.0333 15.1333 33.0333 16.1333],0.926,0.521,1.347,1.008,1.081,0.657,1.547,1.148,283.0,547.0
2015-05-09,Khartoum,Sudan,32.5333,15.6333,[32.0333 15.1333 33.0333 16.1333],0.926,0.512,1.347,0.989,1.066,0.652,1.537,1.133,305.0,527.0
2015-05-10,Khartoum,Sudan,32.5333,15.6333,[32.0333 15.1333 33.0333 16.1333],0.836,0.466,1.418,0.965,1.042,0.628,1.54,1.113,278.0,542.0
2015-05-11,Khartoum,Sudan,32.5333,15.6333,[32.0333 15.1333 33.0333 16.1333],0.884,0.504,1.29,0.959,1.037,0.608,1.48,1.099,305.0,521.0
2015-05-12,Khartoum,Sudan,32.5333,15.6333,[32.0333 15.1333 33.0333 16.1333],0.867,0.504,1.24,0.943,1.076,0.637,1.512,1.138,287.0,549.0
2015-05-13,Khartoum,Sudan,32.5333,15.6333,[32.0333 15.1333 33.0333 16.1333],0.916,0.512,1.214,0.952,1.094,0.663,1.527,1.157,272.0,533.0
2015-05-14,Khartoum,Sudan,32.5333,15.6333,[32.0333 15.1333 33.0333 16.1333],0.965,0.561,1.303,1.008,1.117,0.676,1.553,1.18,290.0,547.0
2015-05-15,Khartoum,Sudan,32.5333,15.6333,[32.0333 15.1333 33.0333 16.1333],0.916,0.538,1.214,0.967,1.165,0.736,1.58,1.211,279.0,549.0
2015-05-16,Khartoum,Sudan,32.5333,15.6333,[32.0333 15.1333 33.0333 16.1333],0.926,0.561,1.3,0.989,1.16,0.733,1.627,1.218,294.0,537.0
2015-05-17,Khartoum,Sudan,32.5333,15.6333,[32.0333 15.1333 33.0333 16.1333],0.926,0.561,1.252,1.008,1.153,0.732,1.614,1.222,294.0,557.0
2015-05-18,Khartoum,Sudan,32.5333,15.6333,[32.0333 15.1333 33.0333 16.1333],0.926,0.561,1.252,1.008,1.165,0.746,1.624,1.235,294.0,504.0
2015-05-19,Khartoum,Sudan,32.5333,15.6333,[32.0333 15.1333 33.0333 16.1333],1.001,0.647,1.309,1.073,1.196,0.789,1.646,1.261,262.0,523.0
2015-05-20,Khartoum,Sudan,32.5333,15.6333,[32.0333 15.1333 33.0333 16.1333],1.047,0.743,1.34,1.112,1.208,0.822,1.662,1.281,256.0,510.0
2015-05-21,Khartoum,Sudan,32.5333,15.6333,[32.0333 15.1333 33.0333 16.1333],1.107,0.783,1.414,1.152,1.24,0.86,1.69,1.311,269.0,530.0
2015-05-22,Khartoum,Sudan,32.5333,15.6333,[32.0333 15.1333 33.0333 16.1333],1.125,0.849,1.501,1.206,1.262,0.875,1.753,1.331,264.0,526.0
2015-05-23,Khartoum,Sudan,32.5333,15.6333,[32.0333 15.1333 33.0333 16.1333],1.177,0.875,1.554,1.274,1.269,0.879,1.728,1.337,264.0,524.0
2015-05-24,Khartoum,Sudan,32.5333,15.6333,[32.0333 15.1333 33.0333 16.1333],1.214,0.942,1.65,1.357,1.3,0.897,1.759,1.365,267.0,527.0
2015-05-25,Khartoum,Sudan,32.5333,15.6333,[32.0333 15.1333 33.0333 16.1333],1.246,0.942,1.641,1.356,1.308,0.897,1.75,1.367,286.0,508.0
2015-05-26,Khartoum,Sudan,32.5333,15.6333,[32.0333 15.1333 33.0333 16.1333],1.307,0.979,1.791,1.427,1.314,0.909,1.782,1.389,259.0,524.0
2015-05-27,Khartoum,Sudan,32.5333,15.6333,[32.0333 15.1333 33.0333 16.1333],1.269,0.879,1.757,1.362,1.3,0.862,1.771,1.368,286.0,505.0
2015-05-28,Khartoum,Sudan,32.5333,15.6333,[32.0333 15.1333 33.0333 16.1333],1.275,0.864,1.765,1.37,1.303,0.865,1.772,1.367,269.0,532.0
2015-05-29,Khartoum,Sudan,32.5333,15.6333,[32.0333 15.1333 33.0333 16.1333],1.233,0.842,1.641,1.294,1.277,0.86,1.748,1.35,255.0,517.0
2015-05-30,Khartoum,Sudan,32.5333,15.6333,[32.0333 15.1333 33.0333 16.1333],1.25,0.853,1.667,1.311,1.283,0.854,1.764,1.368,272.0,529.0
2015-05-31,Khartoum,Sudan,32.5333,15.6333,[32.0333 15.1333 33.0333 16.1333],1.25,0.864,1.628,1.31,1.315,0.905,1.741,1.381,260.0,529.0
2015-06-01,Khartoum,Sudan,32.5333,15.6333,[32.0333 15.1333 33.0333 16.1333],1.252,0.864,1.621,1.299,1.304,0.877,1.755,1.358,264.0,517.0
2015-06-02,Khartoum,Sudan,32.5333,15.6333,[32.0333 15.1333 33.0333 16.1333],1.252,0.864,1.628,1.304,1.27,0.87,1.751,1.353,282.0,559.0
2015-06-03,Khartoum,Sudan,32.5333,15.6333,[32.0333 15.1333 33.0333 16.1333],1.2,0.801,1.611,1.261,1.282,0.842,1.762,1.342,302.0,527.0
2015-06-04,Khartoum,Sudan,32.5333,15.6333,[32.0333 15.1333 33.0333 16.1333],1.081,0.747,1.667,1.253,1.252,0.839,1.757,1.336,271.0,544.0
2015-06-05,Khartoum,Sudan,32.5333,15.6333,[32.0333 15.1333 33.0333 16.1333],1.037,0.731,1.546,1.179,1.235,0.824,1.72,1.303,268.0,532.0
2015-06-06,Khartoum,Sudan,32.5333,15.6333,[32.0333 15.1333 33.0333 16.1333],1.035,0.711,1.482,1.161,1.238,0.82,1.704,1.297,281.0,551.0
2015-06-07,Khartoum,Sudan,32.5333,15.6333,[32.0333 15.1333 33.0333 16.1333],1.022,0.673,1.441,1.131,1.246,0.841,1.722,1.318,278.0,547.0
2015-06-08,Khartoum,Sudan,32.5333,15.6333,[32.0333 15.1333 33.0333 16.1333],0.999,0.669,1.415,1.086,1.245,0.843,1.712,1.299,279.0,549.0
2015-06-09,Khartoum,Sudan,32.5333,15.6333,[32.0333 15.1333 33.0333 16.1333],0.959,0.655,1.37,1.049,1.257,0.873,1.733,1.31,287.0,552.0
2015-06-10,Khartoum,Sudan,32.5333,15.6333,[32.0333 15.1333 33.0333 16.1333],0.965,0.641,1.415,1.063,1.277,0.887,1.754,1.322,310.0,535.0
2015-06-11,Khartoum,Sudan,32.5333,15.6333,[32.0333 15.1333 33.0333 16.1333],0.998,0.656,1.416,1.076,1.276,0.89,1.754,1.316,283.0,548.0
2015-06-12,Khartoum,Sudan,32.5333,15.6333,[32.0333 15.1333 33.0333 16.1333],0.941,0.641,1.37,1.024,1.259,0.87,1.713,1.295,312.0,530.0
2015-06-13,Khartoum,Sudan,32.5333,15.6333,[32.0333 15.1333 33.0333 16.1333],0.941,0.58,1.408,1.04,1.26,0.864,1.731,1.3,296.0,557.0
2015-06-14,Khartoum,Sudan,32.5333,15.6333,[32.0333 15.1333 33.0333 16.1333],0.932,0.58,1.4,1.031,1.254,0.845,1.708,1.282,283.0,541.0
2015-06-15,Khartoum,Sudan,32.5333,15.6333,[32.0333 15.1333 33.0333 16.1333],0.932,0.579,1.416,1.043,1.213,0.797,1.709,1.255,303.0,553.0
2015-06-16,Khartoum,Sudan,32.5333,15.6333,[32.0333 15.1333 33.0333 16.1333],0.873,0.522,1.399,0.998,1.187,0.811,1.692,1.237,290.0,553.0
2015-06-17,Khartoum,Sudan,32.5333,15.6333,[32.0333 15.1333 33.0333 16.1333],0.873,0.522,1.399,0.992,1.194,0.818,1.683,1.24,293.0,539.0
2015-06-18,Khartoum,Sudan,32.5333,15.6333,[32.0333 15.1333 33.0333 16.1333],0.932,0.534,1.408,1.015,1.194,0.82,1.671,1.243,289.0,558.0
2015-06-19,Khartoum,Sudan,32.5333,15.6333,[32.0333 15.1333 33.0333 16.1333],0.932,0.534,1.408,1.015,1.178,0.795,1.654,1.225,289.0,506.0
2015-06-20,Khartoum,Sudan,32.5333,15.6333,[32.0333 15.1333 33.0333 16.1333],0.898,0.522,1.478,1.031,1.173,0.813,1.669,1.232,257.0,524.0
2015-06-21,Khartoum,Sudan,32.5333,15.6333,[32.0333 15.1333 33.0333 16.1333],0.843,0.485,1.4,0.967,1.161,0.792,1.659,1.22,255.0,510.0
2015-06-22,Khartoum,Sudan,32.5333,15.6333,[32.0333 15.1333 33.0333 16.1333],0.843,0.485,1.377,0.966,1.174,0.788,1.692,1.236,265.0,527.0
2015-06-23,Khartoum,Sudan,32.5333,15.6333,[32.0333 15.1333 33.0333 16.1333],0.843,0.48,1.386,0.97,1.18,0.779,1.693,1.243,263.0,523.0